This is the latest recevied weather packets stored in our database for station/object K1BWE-1. If no packets are shown the sender has not sent any weather packets the latest 10 day(s).
| Time | Temp. | Humidity | Pressure | Rain* | Wind** | Luminosity | Snow |
|---|---|---|---|---|---|---|---|
| 1777772017 | 27.22° C | 21% | 1013.7 hPa | 0 mm | - | 23 W/m² | - |
| 1777771714 | 27.22° C | 21% | 1013.8 hPa | 0 mm | - | 28 W/m² | - |
| 1777771412 | 27.78° C | 19% | 1013.7 hPa | 0 mm | - | 38 W/m² | - |
| 1777771109 | 27.78° C | 20% | 1013.8 hPa | 0 mm | - | 49 W/m² | - |
| 1777770806 | 27.78° C | 19% | 1013.7 hPa | 0 mm | - | 55 W/m² | - |
| 1777770502 | 27.78° C | 18% | 1013.8 hPa | 0 mm | - | 65 W/m² | - |
| 1777770199 | 27.78° C | 19% | 1013.7 hPa | 0 mm | - | 69 W/m² | - |
| 1777769896 | 28.33° C | 20% | 1013.7 hPa | 0 mm | - | 72 W/m² | - |
| 1777769593 | 28.33° C | 18% | 1013.7 hPa | 0 mm | - | 74 W/m² | - |
| 1777769289 | 28.33° C | 18% | 1013.3 hPa | 0 mm | - | 72 W/m² | - |
| 1777768987 | 28.89° C | 18% | 1013.6 hPa | 0 mm | - | 78 W/m² | - |
| 1777768685 | 29.44° C | 18% | 1013.4 hPa | 0 mm | - | 106 W/m² | - |
| 1777768381 | 29.44° C | 21% | 1013.6 hPa | 0 mm | - | 135 W/m² | - |
| 1777768078 | 29.44° C | 17% | 1013.4 hPa | 0 mm | - | 169 W/m² | - |
| 1777767775 | 29.44° C | 18% | 1013.7 hPa | 0 mm | - | 164 W/m² | - |
| 1777767471 | 30° C | 17% | 1013.6 hPa | 0 mm | - | 186 W/m² | - |
| 1777767168 | 30° C | 18% | 1013.6 hPa | 0 mm | - | 186 W/m² | - |
| 1777766866 | 30° C | 18% | 1013.4 hPa | 0 mm | - | 180 W/m² | - |
| 1777766563 | 30.56° C | 16% | 1013.6 hPa | 0 mm | - | 220 W/m² | - |
| 1777766260 | 30.56° C | 17% | 1013.4 hPa | 0 mm | - | 301 W/m² | - |
| 1777765957 | 30.56° C | 16% | 1013.7 hPa | 0 mm | - | 358 W/m² | - |
| 1777765653 | 30° C | 17% | 1013.7 hPa | 0 mm | - | 316 W/m² | - |
| 1777765351 | 30° C | 18% | 1013.4 hPa | 0 mm | - | 225 W/m² | - |
| 1777765047 | 30.56° C | 18% | 1013.7 hPa | 0 mm | - | 296 W/m² | - |
| 1777764744 | 29.44° C | 20% | 1013.4 hPa | 0 mm | - | 285 W/m² | - |
* Rain latest hour (hover to see other rain measurements)
** Current wind speed in m/s (hover to see current wind gust speed)